Location: *
(28.3744°N, 81.5492°W)
Time: 04:14:44
(UTC+00:00)

Cosmos 1943 Rocket - Pass Details

Date: 15 June 2025
Orbit: 810 x 843 km, 71.0° (Epoch: 11 July)

Event Time Altitude Azimuth Distance (km) Brightness Sun altitude
Exits shadow 07:03:43 42° 358° (N) 1,141 3.1 -33.3°
Drops below altitude 10° 07:07:23 10° 13° (NNE) 2,400 5.4 -32.9°
Sets 07:09:50 0° 16° (NNE) 3,337 6.4 -32.6°
